Location: Auttagershofen
(48.1940°N, 10.0237°E)
Time: 18:10:23
(UTC+00:00)

Cosmos 1862 Rocket - Pass Details

Date: 18 January 2026
Orbit: 596 x 627 km, 82.5° (Epoch: 16 February)

Event Time Altitude Azimuth Distance (km) Brightness Sun altitude
Exits shadow 05:59:52 - 341° (NNW) 2,738 6.5 -10.4°
Reaches altitude 10° 06:01:55 10° 332° (NNW) 1,964 5.7 -10.1°
Maximum altitude 06:05:46 32° 270° (W) 1,045 4.2 -9.5°
Drops below altitude 10° 06:09:34 10° 207° (SSW) 1,936 6.0 -8.9°
Sets 06:11:55 0° 197° (SSW) 2,830 7.0 -8.5°
